{"data":{"norad_id":67066,"intl_designator":"2025-295H","name":"HULIANWANG DIGUI-126","alt_names":[],"object_type":"PAYLOAD","status":"ACTIVE","operator":null,"country":"PRC","launch_date":"2025-12-11","launch_site_code":"WSC","launch_vehicle":null,"mission":null,"orbit_class":"UNKNOWN","rcs_meters":null,"size_class":null,"mass_kg":null,"dimensions":null,"purposes":[],"wikipedia_slug":null,"has_3d_model":false,"image_url":null,"decayed_at":null,"tle_current":{"epoch":"2026-09-20T15:37:40.946304Z","epoch_age_seconds":95906,"freshness":"FRESH","line1":"1 67066U 25295H   26263.65116836 -.00000109  00000+0  33472-4 0  9996","line2":"2 67066  50.0002  42.7701 0000673  77.7758 282.3190 13.29326547 38202","mean_motion":13.29326547,"eccentricity":6.73e-5,"inclination_deg":50.0002,"raan_deg":42.7701,"arg_perigee_deg":77.7758,"mean_anomaly_deg":282.319,"bstar":3.3472e-5,"rev_number":3820,"period_min":108.32552793366,"perigee_km":1148.797910079,"apogee_km":1149.8111037058,"semimajor_km":7527.4415068924,"source":"CELESTRAK","updated_at":"2026-09-21T09:00:16.410557Z"}}}